Time,TemperatureF,DewpointF,PressureIn,WindDirection,WindDirectionDegrees,WindSpeedMPH,WindSpeedGustMPH,Humidity,HourlyPrecipIn,Conditions,Clouds,dailyrainin,SoftwareType,DateUTC
2013-07-27 00:00:00,81.0,65.4,29.91,SE,135,0.2,0.2,59,0.00,,,0.00,WUHU216HW,2013-07-27 07:00:00,
2013-07-27 00:05:00,81.0,65.4,29.91,North,0,0.0,0.0,59,0.00,,,0.00,WUHU216HW,2013-07-27 07:05:00,
2013-07-27 00:10:00,81.0,65.4,29.91,North,0,0.0,0.0,59,0.00,,,0.00,WUHU216HW,2013-07-27 07:10:00,
2013-07-27 00:15:00,81.0,65.4,29.91,North,0,0.0,0.0,59,0.00,,,0.00,WUHU216HW,2013-07-27 07:15:00,
2013-07-27 00:20:00,80.8,65.2,29.91,North,0,0.0,0.0,59,0.00,,,0.00,WUHU216HW,2013-07-27 07:20:00,
2013-07-27 00:25:00,80.6,65.0,29.91,East,82,0.4,0.9,59,0.00,,,0.00,WUHU216HW,2013-07-27 07:25:00,
2013-07-27 00:30:00,80.1,65.1,29.91,East,88,0.6,1.1,60,0.00,,,0.00,WUHU216HW,2013-07-27 07:30:00,
2013-07-27 00:35:00,79.9,64.9,29.91,North,0,0.0,0.0,60,0.00,,,0.00,WUHU216HW,2013-07-27 07:35:00,
2013-07-27 00:40:00,79.6,65.0,29.91,North,0,0.0,0.0,61,0.00,,,0.00,WUHU216HW,2013-07-27 07:40:00,
2013-07-27 00:45:00,79.6,65.0,29.91,East,90,0.5,0.9,61,0.00,,,0.00,WUHU216HW,2013-07-27 07:45:00,
2013-07-27 00:50:00,79.6,65.0,29.91,North,0,0.0,0.0,61,0.00,,,0.00,WUHU216HW,2013-07-27 07:50:00,
2013-07-27 00:55:00,79.2,64.6,29.91,North,0,0.0,0.0,61,0.00,,,0.00,WUHU216HW,2013-07-27 07:55:00,
2013-07-27 01:00:00,79.2,65.1,29.91,North,0,0.0,0.0,62,0.00,,,0.00,WUHU216HW,2013-07-27 08:00:00,
2013-07-27 01:05:00,79.4,65.3,29.91,North,0,0.0,0.0,62,0.00,,,0.00,WUHU216HW,2013-07-27 08:05:00,
2013-07-27 01:10:00,79.4,65.3,29.91,ESE,113,0.2,0.2,62,0.00,,,0.00,WUHU216HW,2013-07-27 08:10:00,
2013-07-27 01:15:00,79.4,65.3,29.91,ESE,113,0.3,0.4,62,0.00,,,0.00,WUHU216HW,2013-07-27 08:15:00,
2013-07-27 01:20:00,79.6,65.4,29.91,North,0,0.0,0.0,62,0.00,,,0.00,WUHU216HW,2013-07-27 08:20:00,
2013-07-27 01:25:00,79.6,65.0,29.91,North,0,0.0,0.0,61,0.00,,,0.00,WUHU216HW,2013-07-27 08:25:00,
2013-07-27 01:30:00,79.6,65.0,29.91,North,0,0.0,0.0,61,0.00,,,0.00,WUHU216HW,2013-07-27 08:30:00,
2013-07-27 01:35:00,79.6,65.0,29.91,North,0,0.0,0.0,61,0.00,,,0.00,WUHU216HW,2013-07-27 08:35:00,
2013-07-27 01:40:00,79.6,65.0,29.91,ESE,113,0.2,0.2,61,0.00,,,0.00,WUHU216HW,2013-07-27 08:40:00,
2013-07-27 01:46:00,79.6,65.4,29.91,North,0,0.0,0.0,62,0.00,,,0.00,WUHU216HW,2013-07-27 08:46:00,
2013-07-27 01:51:00,79.6,65.4,29.91,SSE,154,0.7,1.1,62,0.00,,,0.00,WUHU216HW,2013-07-27 08:51:00,
2013-07-27 01:56:00,79.9,65.8,29.91,SE,126,0.5,0.7,62,0.00,,,0.00,WUHU216HW,2013-07-27 08:56:00,
2013-07-27 02:01:00,79.9,65.8,29.91,ESE,118,0.7,1.3,62,0.00,,,0.00,WUHU216HW,2013-07-27 09:01:00,
2013-07-27 02:06:00,79.9,65.4,29.90,SSE,158,0.6,1.8,61,0.00,,,0.00,WUHU216HW,2013-07-27 09:06:00,
2013-07-27 02:11:00,79.9,65.8,29.90,South,180,0.8,1.8,62,0.00,,,0.00,WUHU216HW,2013-07-27 09:11:00,
2013-07-27 02:16:00,79.9,65.8,29.90,SSE,161,0.4,0.7,62,0.00,,,0.00,WUHU216HW,2013-07-27 09:16:00,
2013-07-27 02:21:00,79.7,65.6,29.90,North,0,0.0,0.0,62,0.00,,,0.00,WUHU216HW,2013-07-27 09:21:00,
2013-07-27 02:26:00,79.7,65.6,29.90,ESE,104,0.4,0.4,62,0.00,,,0.00,WUHU216HW,2013-07-27 09:26:00,
2013-07-27 02:31:00,79.7,65.6,29.90,ENE,70,0.3,0.4,62,0.00,,,0.00,WUHU216HW,2013-07-27 09:31:00,
2013-07-27 02:36:00,79.6,65.4,29.90,North,0,0.0,0.0,62,0.00,,,0.00,WUHU216HW,2013-07-27 09:36:00,
2013-07-27 02:41:00,79.6,65.4,29.90,North,0,0.0,0.0,62,0.00,,,0.00,WUHU216HW,2013-07-27 09:41:00,
2013-07-27 02:46:00,79.6,65.4,29.90,North,0,0.0,0.0,62,0.00,,,0.00,WUHU216HW,2013-07-27 09:46:00,
2013-07-27 02:51:00,79.6,65.9,29.90,North,0,0.0,0.0,63,0.00,,,0.00,WUHU216HW,2013-07-27 09:51:00,
2013-07-27 02:56:00,79.4,65.7,29.90,North,0,0.0,0.0,63,0.00,,,0.00,WUHU216HW,2013-07-27 09:56:00,
2013-07-27 03:01:00,79.4,65.7,29.90,North,0,0.0,0.0,63,0.00,,,0.00,WUHU216HW,2013-07-27 10:01:00,
2013-07-27 03:06:00,79.4,65.7,29.90,North,0,0.0,0.0,63,0.00,,,0.00,WUHU216HW,2013-07-27 10:06:00,
2013-07-27 03:11:00,79.2,65.5,29.90,North,0,0.0,0.0,63,0.00,,,0.00,WUHU216HW,2013-07-27 10:11:00,
2013-07-27 03:16:00,79.2,65.5,29.90,North,0,0.0,0.0,63,0.00,,,0.00,WUHU216HW,2013-07-27 10:16:00,
2013-07-27 03:21:00,79.2,66.0,29.90,North,0,0.0,0.0,64,0.00,,,0.00,WUHU216HW,2013-07-27 10:21:00,
2013-07-27 03:26:00,79.2,66.0,29.90,North,0,0.0,0.0,64,0.00,,,0.00,WUHU216HW,2013-07-27 10:26:00,
2013-07-27 03:31:00,79.2,66.0,29.90,North,0,0.0,0.0,64,0.00,,,0.00,WUHU216HW,2013-07-27 10:31:00,
2013-07-27 03:36:00,79.2,66.0,29.90,North,0,0.0,0.0,64,0.00,,,0.00,WUHU216HW,2013-07-27 10:36:00,
2013-07-27 03:41:00,79.2,66.0,29.90,North,0,0.0,0.0,64,0.00,,,0.00,WUHU216HW,2013-07-27 10:41:00,
2013-07-27 03:46:00,79.2,66.4,29.90,North,0,0.0,0.0,65,0.00,,,0.00,WUHU216HW,2013-07-27 10:46:00,
2013-07-27 03:51:00,79.2,66.0,29.90,North,0,0.0,0.0,64,0.00,,,0.00,WUHU216HW,2013-07-27 10:51:00,
2013-07-27 03:56:00,79.2,66.0,29.90,North,0,0.0,0.0,64,0.00,,,0.00,WUHU216HW,2013-07-27 10:56:00,
2013-07-27 04:01:00,79.2,66.0,29.90,North,0,0.0,0.0,64,0.00,,,0.00,WUHU216HW,2013-07-27 11:01:00,
2013-07-27 04:06:00,79.2,66.0,29.90,North,0,0.3,0.4,64,0.00,,,0.00,WUHU216HW,2013-07-27 11:06:00,
2013-07-27 04:11:00,79.2,66.0,29.90,West,277,0.5,0.9,64,0.00,,,0.00,WUHU216HW,2013-07-27 11:11:00,
2013-07-27 04:16:00,79.2,65.5,29.90,North,0,0.0,0.0,63,0.00,,,0.00,WUHU216HW,2013-07-27 11:16:00,
2013-07-27 04:21:00,79.0,64.9,29.90,North,0,0.0,0.0,62,0.00,,,0.00,WUHU216HW,2013-07-27 11:21:00,
2013-07-27 04:26:00,79.0,64.9,29.90,North,0,0.0,0.0,62,0.00,,,0.00,WUHU216HW,2013-07-27 11:26:00,
2013-07-27 04:31:00,79.0,64.5,29.90,North,0,0.0,0.0,61,0.00,,,0.00,WUHU216HW,2013-07-27 11:31:00,
2013-07-27 04:36:00,79.0,64.5,29.90,North,0,0.0,0.0,61,0.00,,,0.00,WUHU216HW,2013-07-27 11:36:00,
2013-07-27 04:41:00,79.0,64.9,29.91,North,0,0.0,0.0,62,0.00,,,0.00,WUHU216HW,2013-07-27 11:41:00,
2013-07-27 04:46:00,78.8,65.2,29.91,North,0,0.0,0.0,63,0.00,,,0.00,WUHU216HW,2013-07-27 11:46:00,
2013-07-27 04:51:00,78.8,65.6,29.91,North,0,0.0,0.0,64,0.00,,,0.00,WUHU216HW,2013-07-27 11:51:00,
2013-07-27 04:56:00,78.5,65.3,29.91,SSW,203,0.4,0.4,64,0.00,,,0.00,WUHU216HW,2013-07-27 11:56:00,
2013-07-27 05:01:00,78.5,65.7,29.91,North,0,0.0,0.0,65,0.00,,,0.00,WUHU216HW,2013-07-27 12:01:00,
2013-07-27 05:06:00,78.5,65.7,29.91,South,189,0.3,0.4,65,0.00,,,0.00,WUHU216HW,2013-07-27 12:06:00,
2013-07-27 05:11:00,78.3,65.5,29.91,SSE,158,0.4,0.7,65,0.00,,,0.00,WUHU216HW,2013-07-27 12:11:00,
2013-07-27 05:16:00,78.3,65.5,29.91,South,172,0.7,1.1,65,0.00,,,0.00,WUHU216HW,2013-07-27 12:16:00,
2013-07-27 05:21:00,78.1,65.8,29.91,North,0,0.0,0.0,66,0.00,,,0.00,WUHU216HW,2013-07-27 12:21:00,
2013-07-27 05:27:00,77.8,65.9,29.91,SSE,158,0.4,0.4,67,0.00,,,0.00,WUHU216HW,2013-07-27 12:27:00,
2013-07-27 05:32:00,77.6,65.8,29.91,SE,135,0.3,0.7,67,0.00,,,0.00,WUHU216HW,2013-07-27 12:32:00,
2013-07-27 05:37:00,77.4,66.1,29.91,North,0,0.0,0.0,68,0.00,,,0.00,WUHU216HW,2013-07-27 12:37:00,
2013-07-27 05:42:00,77.4,66.1,29.91,North,0,0.0,0.0,68,0.00,,,0.00,WUHU216HW,2013-07-27 12:42:00,
2013-07-27 05:47:00,77.0,65.7,29.91,SE,142,0.4,0.7,68,0.00,,,0.00,WUHU216HW,2013-07-27 12:47:00,
2013-07-27 05:52:00,76.9,65.5,29.91,SSE,166,0.4,0.4,68,0.00,,,0.00,WUHU216HW,2013-07-27 12:52:00,
2013-07-27 05:57:00,76.7,65.3,29.92,North,0,0.0,0.0,68,0.00,,,0.00,WUHU216HW,2013-07-27 12:57:00,
2013-07-27 06:02:00,76.7,65.8,29.92,North,0,0.0,0.0,69,0.00,,,0.00,WUHU216HW,2013-07-27 13:02:00,
2013-07-27 06:07:00,76.7,65.8,29.92,North,0,0.0,0.0,69,0.00,,,0.00,WUHU216HW,2013-07-27 13:07:00,
2013-07-27 06:12:00,76.5,66.1,29.92,SE,131,0.3,0.4,70,0.00,,,0.00,WUHU216HW,2013-07-27 13:12:00,
2013-07-27 06:17:00,76.3,65.9,29.92,SE,135,0.2,0.2,70,0.00,,,0.00,WUHU216HW,2013-07-27 13:17:00,
2013-07-27 06:22:00,76.1,65.7,29.92,North,0,0.0,0.0,70,0.00,,,0.00,WUHU216HW,2013-07-27 13:22:00,
2013-07-27 06:27:00,76.1,65.3,29.92,North,0,0.0,0.0,69,0.00,,,0.00,WUHU216HW,2013-07-27 13:27:00,
2013-07-27 06:32:00,76.1,65.3,29.92,ESE,113,0.3,0.4,69,0.00,,,0.00,WUHU216HW,2013-07-27 13:32:00,
2013-07-27 06:37:00,76.1,65.3,29.92,SE,125,0.3,0.4,69,0.00,,,0.00,WUHU216HW,2013-07-27 13:37:00,
2013-07-27 06:42:00,76.1,64.8,29.92,SE,135,0.3,0.4,68,0.00,,,0.00,WUHU216HW,2013-07-27 13:42:00,
2013-07-27 06:47:00,76.1,64.8,29.92,SE,135,0.2,0.2,68,0.00,,,0.00,WUHU216HW,2013-07-27 13:47:00,
2013-07-27 06:52:00,76.1,64.8,29.92,SE,135,0.3,0.4,68,0.00,,,0.00,WUHU216HW,2013-07-27 13:52:00,
2013-07-27 06:57:00,76.1,64.8,29.92,SE,140,0.4,0.7,68,0.00,,,0.00,WUHU216HW,2013-07-27 13:57:00,
2013-07-27 07:02:00,76.3,65.0,29.92,SSE,161,0.7,1.3,68,0.00,,,0.00,WUHU216HW,2013-07-27 14:02:00,
2013-07-27 07:07:00,76.3,64.5,29.92,SSE,154,0.6,1.1,67,0.00,,,0.00,WUHU216HW,2013-07-27 14:07:00,
2013-07-27 07:12:00,76.5,64.7,29.92,SSE,155,0.8,1.3,67,0.00,,,0.00,WUHU216HW,2013-07-27 14:12:00,
2013-07-27 07:17:00,76.5,64.3,29.92,SSE,164,1.2,1.8,66,0.00,,,0.00,WUHU216HW,2013-07-27 14:17:00,
2013-07-27 07:22:00,76.7,64.4,29.92,South,190,1.4,2.0,66,0.00,,,0.00,WUHU216HW,2013-07-27 14:22:00,
2013-07-27 07:27:00,76.9,63.7,29.93,South,179,1.6,2.5,64,0.00,,,0.00,WUHU216HW,2013-07-27 14:27:00,
2013-07-27 07:32:00,76.9,63.7,29.93,SSE,163,1.6,2.7,64,0.00,,,0.00,WUHU216HW,2013-07-27 14:32:00,
2013-07-27 07:37:00,76.7,63.5,29.93,SSE,148,1.1,2.0,64,0.00,,,0.00,WUHU216HW,2013-07-27 14:37:00,
2013-07-27 07:42:00,76.9,63.3,29.93,SE,144,0.8,1.3,63,0.00,,,0.00,WUHU216HW,2013-07-27 14:42:00,
2013-07-27 07:47:00,76.9,62.8,29.93,SSE,151,0.8,1.3,62,0.00,,,0.00,WUHU216HW,2013-07-27 14:47:00,
2013-07-27 07:52:00,77.0,62.6,29.93,SSE,150,1.0,1.8,61,0.00,,,0.00,WUHU216HW,2013-07-27 14:52:00,
2013-07-27 07:57:00,77.2,63.2,29.93,South,172,1.6,2.5,62,0.00,,,0.00,WUHU216HW,2013-07-27 14:57:00,
2013-07-27 08:02:00,77.2,62.7,29.93,SSE,168,1.8,2.5,61,0.00,,,0.00,WUHU216HW,2013-07-27 15:02:00,
2013-07-27 08:07:00,77.4,62.9,29.93,SSE,158,1.4,2.5,61,0.00,,,0.00,WUHU216HW,2013-07-27 15:07:00,
2013-07-27 08:12:00,77.4,62.5,29.93,South,185,1.0,1.8,60,0.00,,,0.00,WUHU216HW,2013-07-27 15:12:00,
2013-07-27 08:17:00,77.8,62.3,29.93,South,174,1.2,2.2,59,0.00,,,0.00,WUHU216HW,2013-07-27 15:17:00,
2013-07-27 08:22:00,78.1,62.6,29.93,South,184,1.2,1.8,59,0.00,,,0.00,WUHU216HW,2013-07-27 15:22:00,
2013-07-27 08:27:00,78.3,62.4,29.93,SSE,157,1.1,2.2,58,0.00,,,0.00,WUHU216HW,2013-07-27 15:27:00,
2013-07-27 08:32:00,78.7,62.2,29.94,SE,136,1.2,2.5,57,0.00,,,0.00,WUHU216HW,2013-07-27 15:32:00,
2013-07-27 08:37:00,78.8,61.8,29.93,SE,137,1.0,1.8,56,0.00,,,0.00,WUHU216HW,2013-07-27 15:37:00,
2013-07-27 08:42:00,79.2,62.1,29.93,SE,139,1.2,1.8,56,0.00,,,0.00,WUHU216HW,2013-07-27 15:42:00,
2013-07-27 08:47:00,79.6,62.5,29.94,SE,139,1.4,2.0,56,0.00,,,0.00,WUHU216HW,2013-07-27 15:47:00,
2013-07-27 08:52:00,79.6,62.5,29.94,SE,144,1.3,2.2,56,0.00,,,0.00,WUHU216HW,2013-07-27 15:52:00,
2013-07-27 08:57:00,80.1,62.9,29.94,SE,138,1.4,2.7,56,0.00,,,0.00,WUHU216HW,2013-07-27 15:57:00,
2013-07-27 09:02:00,80.6,62.4,29.94,SE,140,1.6,2.7,54,0.00,,,0.00,WUHU216HW,2013-07-27 16:02:00,
2013-07-27 09:07:00,81.4,62.6,29.94,SSE,167,1.5,2.5,53,0.00,,,0.00,WUHU216HW,2013-07-27 16:07:00,
2013-07-27 09:12:00,81.9,61.9,29.94,South,188,2.1,3.1,51,0.00,,,0.00,WUHU216HW,2013-07-27 16:12:00,
2013-07-27 09:17:00,82.3,62.3,29.94,SSE,168,2.0,3.1,51,0.00,,,0.00,WUHU216HW,2013-07-27 16:17:00,
2013-07-27 09:22:00,82.6,62.7,29.94,South,170,1.5,2.9,51,0.00,,,0.00,WUHU216HW,2013-07-27 16:22:00,
2013-07-27 09:27:00,83.2,62.0,29.93,SSE,158,2.1,3.1,49,0.00,,,0.00,WUHU216HW,2013-07-27 16:27:00,
2013-07-27 09:32:00,83.3,61.6,29.93,SSW,193,1.5,3.6,48,0.00,,,0.00,WUHU216HW,2013-07-27 16:32:00,
2013-07-27 09:37:00,83.7,61.9,29.93,SSE,166,1.6,2.9,48,0.00,,,0.00,WUHU216HW,2013-07-27 16:37:00,
2013-07-27 09:42:00,84.1,61.7,29.93,SSW,195,1.9,3.4,47,0.00,,,0.00,WUHU216HW,2013-07-27 16:42:00,
2013-07-27 09:47:00,84.2,62.5,29.93,SSE,156,1.8,2.7,48,0.00,,,0.00,WUHU216HW,2013-07-27 16:47:00,
2013-07-27 09:52:00,84.4,62.0,29.93,South,172,2.5,3.6,47,0.00,,,0.00,WUHU216HW,2013-07-27 16:52:00,
2013-07-27 09:57:00,84.8,61.7,29.92,SSE,168,2.7,4.3,46,0.00,,,0.00,WUHU216HW,2013-07-27 16:57:00,
2013-07-27 10:02:00,85.0,62.5,29.93,South,178,2.3,3.6,47,0.00,,,0.00,WUHU216HW,2013-07-27 17:02:00,
2013-07-27 10:07:00,85.3,62.8,29.92,SSE,167,2.0,3.1,47,0.00,,,0.00,WUHU216HW,2013-07-27 17:07:00,
2013-07-27 10:12:00,85.9,63.3,29.92,SSE,163,1.5,2.7,47,0.00,,,0.00,WUHU216HW,2013-07-27 17:12:00,
2013-07-27 10:17:00,86.2,63.6,29.92,SSE,156,1.7,3.8,47,0.00,,,0.00,WUHU216HW,2013-07-27 17:17:00,
2013-07-27 10:22:00,86.9,63.6,29.92,ESE,118,1.6,2.7,46,0.00,,,0.00,WUHU216HW,2013-07-27 17:22:00,
2013-07-27 10:27:00,87.1,62.6,29.92,SSE,162,1.9,3.1,44,0.00,,,0.00,WUHU216HW,2013-07-27 17:27:00,
2013-07-27 10:32:00,87.5,62.2,29.92,SSE,161,1.6,3.1,43,0.00,,,0.00,WUHU216HW,2013-07-27 17:32:00,
2013-07-27 10:37:00,87.5,62.2,29.92,SSE,154,2.3,3.4,43,0.00,,,0.00,WUHU216HW,2013-07-27 17:37:00,
2013-07-27 10:42:00,87.8,62.6,29.92,SSE,150,2.2,3.8,43,0.00,,,0.00,WUHU216HW,2013-07-27 17:42:00,
2013-07-27 10:47:00,88.4,62.4,29.91,SSE,147,2.2,3.4,42,0.00,,,0.00,WUHU216HW,2013-07-27 17:47:00,
2013-07-27 10:52:00,88.6,62.6,29.91,SSE,147,2.0,3.6,42,0.00,,,0.00,WUHU216HW,2013-07-27 17:52:00,
2013-07-27 10:57:00,88.9,62.8,29.91,SSW,211,2.0,2.9,42,0.00,,,0.00,WUHU216HW,2013-07-27 17:57:00,
2013-07-27 11:02:00,89.5,62.7,29.91,SW,214,1.6,2.7,41,0.00,,,0.00,WUHU216HW,2013-07-27 18:02:00,
2013-07-27 11:07:00,89.6,62.7,29.91,SSE,148,1.8,2.7,41,0.00,,,0.00,WUHU216HW,2013-07-27 18:07:00,
2013-07-27 11:12:00,90.4,63.4,29.91,SSE,168,2.1,3.4,41,0.00,,,0.00,WUHU216HW,2013-07-27 18:12:00,
2013-07-27 11:17:00,91.1,64.1,29.90,SSE,158,1.7,3.6,41,0.00,,,0.00,WUHU216HW,2013-07-27 18:17:00,
2013-07-27 11:22:00,91.4,63.7,29.90,WNW,290,1.7,4.7,40,0.00,,,0.00,WUHU216HW,2013-07-27 18:22:00,
2013-07-27 11:27:00,91.6,63.1,29.90,West,266,2.4,3.6,39,0.00,,,0.00,WUHU216HW,2013-07-27 18:27:00,
2013-07-27 11:32:00,91.4,62.1,29.90,WSW,241,2.0,3.4,38,0.00,,,0.00,WUHU216HW,2013-07-27 18:32:00,
2013-07-27 11:37:00,91.8,63.3,29.89,SSW,208,1.1,3.1,39,0.00,,,0.00,WUHU216HW,2013-07-27 18:37:00,
2013-07-27 11:42:00,92.0,62.7,29.89,West,280,3.2,4.7,38,0.00,,,0.00,WUHU216HW,2013-07-27 18:42:00,
2013-07-27 11:47:00,92.0,61.0,29.89,West,279,2.7,4.7,36,0.00,,,0.00,WUHU216HW,2013-07-27 18:47:00,
2013-07-27 11:52:00,92.3,61.3,29.89,West,266,2.7,4.3,36,0.00,,,0.00,WUHU216HW,2013-07-27 18:52:00,
2013-07-27 11:57:00,92.9,61.8,29.89,WSW,242,1.2,2.7,36,0.00,,,0.00,WUHU216HW,2013-07-27 18:57:00,
2013-07-27 12:02:00,93.6,62.5,29.89,SSE,159,2.9,4.7,36,0.00,,,0.00,WUHU216HW,2013-07-27 19:02:00,
2013-07-27 12:08:00,94.1,62.9,29.89,SSE,167,1.5,3.1,36,0.00,,,0.00,WUHU216HW,2013-07-27 19:08:00,
2013-07-27 12:13:00,94.3,62.3,29.88,SSE,152,2.1,3.1,35,0.00,,,0.00,WUHU216HW,2013-07-27 19:13:00,
2013-07-27 12:18:00,94.3,62.3,29.88,NW,313,1.3,2.9,35,0.00,,,0.00,WUHU216HW,2013-07-27 19:18:00,
2013-07-27 12:23:00,94.9,61.9,29.88,WSW,255,1.3,2.5,34,0.00,,,0.00,WUHU216HW,2013-07-27 19:23:00,
2013-07-27 12:28:00,95.0,62.1,29.88,West,267,2.6,3.8,34,0.00,,,0.00,WUHU216HW,2013-07-27 19:28:00,
2013-07-27 12:33:00,94.9,61.1,29.87,WNW,295,1.8,3.6,33,0.00,,,0.00,WUHU216HW,2013-07-27 19:33:00,
2013-07-27 12:38:00,95.4,61.6,29.87,SSW,210,2.1,3.4,33,0.00,,,0.00,WUHU216HW,2013-07-27 19:38:00,
2013-07-27 12:43:00,95.4,60.8,29.87,WSW,250,1.7,3.4,32,0.00,,,0.00,WUHU216HW,2013-07-27 19:43:00,
2013-07-27 12:48:00,95.4,60.8,29.87,SW,214,1.7,4.0,32,0.00,,,0.00,WUHU216HW,2013-07-27 19:48:00,
2013-07-27 12:53:00,96.1,62.2,29.87,SW,227,1.4,2.9,33,0.00,,,0.00,WUHU216HW,2013-07-27 19:53:00,
2013-07-27 12:58:00,96.5,61.7,29.87,South,190,1.6,3.4,32,0.00,,,0.00,WUHU216HW,2013-07-27 19:58:00,
2013-07-27 13:03:00,96.7,60.1,29.86,WSW,250,2.2,4.7,30,0.00,,,0.00,WUHU216HW,2013-07-27 20:03:00,
2013-07-27 13:08:00,96.8,60.3,29.86,West,276,2.5,4.7,30,0.00,,,0.00,WUHU216HW,2013-07-27 20:08:00,
2013-07-27 13:13:00,97.0,59.4,29.86,West,269,2.5,4.5,29,0.00,,,0.00,WUHU216HW,2013-07-27 20:13:00,
2013-07-27 13:18:00,97.4,59.7,29.86,SW,220,1.9,3.6,29,0.00,,,0.00,WUHU216HW,2013-07-27 20:18:00,
2013-07-27 13:23:00,97.7,60.0,29.85,NW,311,3.0,4.7,29,0.00,,,0.00,WUHU216HW,2013-07-27 20:23:00,
2013-07-27 13:28:00,98.1,60.3,29.85,NW,311,2.0,3.6,29,0.00,,,0.00,WUHU216HW,2013-07-27 20:28:00,
2013-07-27 13:33:00,98.3,58.2,29.85,WNW,292,2.9,4.3,27,0.00,,,0.00,WUHU216HW,2013-07-27 20:33:00,
2013-07-27 13:38:00,98.3,58.2,29.85,WNW,303,2.6,4.7,27,0.00,,,0.00,WUHU216HW,2013-07-27 20:38:00,
2013-07-27 13:43:00,98.5,58.4,29.85,WNW,296,2.5,4.7,27,0.00,,,0.00,WUHU216HW,2013-07-27 20:43:00,
2013-07-27 13:48:00,98.8,57.6,29.84,WSW,251,1.5,2.9,26,0.00,,,0.00,WUHU216HW,2013-07-27 20:48:00,
2013-07-27 13:53:00,99.4,57.0,29.84,SW,229,2.4,4.0,25,0.00,,,0.00,WUHU216HW,2013-07-27 20:53:00,
2013-07-27 13:58:00,99.5,57.2,29.84,WSW,242,2.2,4.9,25,0.00,,,0.00,WUHU216HW,2013-07-27 20:58:00,
2013-07-27 14:03:00,99.9,57.4,29.84,West,259,2.1,3.6,25,0.00,,,0.00,WUHU216HW,2013-07-27 21:03:00,
2013-07-27 14:08:00,100.4,57.9,29.83,WNW,301,3.0,5.1,25,0.00,,,0.00,WUHU216HW,2013-07-27 21:08:00,
2013-07-27 14:13:00,100.4,57.9,29.83,WNW,296,2.8,4.9,25,0.00,,,0.00,WUHU216HW,2013-07-27 21:13:00,
2013-07-27 14:18:00,100.8,58.1,29.83,West,276,2.6,5.1,25,0.00,,,0.00,WUHU216HW,2013-07-27 21:18:00,
2013-07-27 14:23:00,100.6,58.1,29.83,West,268,2.4,4.3,25,0.00,,,0.00,WUHU216HW,2013-07-27 21:23:00,
2013-07-27 14:28:00,101.0,58.3,29.82,WNW,291,2.1,6.0,25,0.00,,,0.00,WUHU216HW,2013-07-27 21:28:00,
2013-07-27 14:33:00,101.0,57.2,29.82,WNW,302,4.0,6.3,24,0.00,,,0.00,WUHU216HW,2013-07-27 21:33:00,
2013-07-27 14:38:00,100.8,57.1,29.82,NW,311,1.9,5.6,24,0.00,,,0.00,WUHU216HW,2013-07-27 21:38:00,
2013-07-27 14:43:00,100.8,58.1,29.82,NW,322,1.6,5.4,25,0.00,,,0.00,WUHU216HW,2013-07-27 21:43:00,
2013-07-27 14:48:00,101.0,57.2,29.81,NW,310,4.1,6.3,24,0.00,,,0.00,WUHU216HW,2013-07-27 21:48:00,
2013-07-27 14:53:00,101.2,56.2,29.82,NW,321,2.1,4.0,23,0.00,,,0.00,WUHU216HW,2013-07-27 21:53:00,
2013-07-27 14:58:00,101.3,56.4,29.81,NW,312,2.5,5.1,23,0.00,,,0.00,WUHU216HW,2013-07-27 21:58:00,
2013-07-27 15:03:00,101.5,56.4,29.81,WNW,295,3.1,5.4,23,0.00,,,0.00,WUHU216HW,2013-07-27 22:03:00,
2013-07-27 15:13:00,101.5,55.4,29.80,WNW,300,2.8,5.4,22,0.00,,,0.00,WUHU216HW,2013-07-27 22:13:00,
2013-07-27 15:18:00,101.3,55.2,29.80,WNW,288,3.3,5.6,22,0.00,,,0.00,WUHU216HW,2013-07-27 22:18:00,
2013-07-27 15:23:00,101.5,55.4,29.80,WNW,298,3.4,5.4,22,0.00,,,0.00,WUHU216HW,2013-07-27 22:23:00,
2013-07-27 15:28:00,101.5,55.4,29.79,NW,313,4.2,5.8,22,0.00,,,0.00,WUHU216HW,2013-07-27 22:28:00,
2013-07-27 15:33:00,101.9,55.6,29.79,WNW,303,4.0,5.8,22,0.00,,,0.00,WUHU216HW,2013-07-27 22:33:00,
2013-07-27 15:38:00,101.9,54.5,29.79,NW,312,3.0,4.9,21,0.00,,,0.00,WUHU216HW,2013-07-27 22:38:00,
2013-07-27 15:43:00,101.9,53.4,29.79,NW,321,2.6,4.7,20,0.00,,,0.00,WUHU216HW,2013-07-27 22:43:00,
2013-07-27 15:48:00,101.5,51.2,29.79,NW,315,3.1,6.3,19,0.00,,,0.00,WUHU216HW,2013-07-27 22:48:00,
2013-07-27 15:53:00,101.2,52.7,29.79,NNW,334,2.1,6.3,20,0.00,,,0.00,WUHU216HW,2013-07-27 22:53:00,
2013-07-27 15:58:00,101.0,54.9,29.79,NW,314,4.6,6.5,22,0.00,,,0.00,WUHU216HW,2013-07-27 22:58:00,
2013-07-27 16:03:00,101.2,55.1,29.79,WNW,302,3.2,6.3,22,0.00,,,0.00,WUHU216HW,2013-07-27 23:03:00,
2013-07-27 16:08:00,101.2,55.1,29.79,NW,312,2.2,4.7,22,0.00,,,0.00,WUHU216HW,2013-07-27 23:08:00,
2013-07-27 16:13:00,101.2,55.1,29.79,WNW,299,3.7,6.9,22,0.00,,,0.00,WUHU216HW,2013-07-27 23:13:00,
2013-07-27 16:18:00,101.5,55.4,29.79,WNW,292,4.3,5.4,22,0.00,,,0.00,WUHU216HW,2013-07-27 23:18:00,
2013-07-27 16:23:00,101.5,55.4,29.78,NW,313,4.4,6.9,22,0.00,,,0.00,WUHU216HW,2013-07-27 23:23:00,
2013-07-27 16:28:00,101.5,55.4,29.78,WNW,297,4.3,6.0,22,0.00,,,0.00,WUHU216HW,2013-07-27 23:28:00,
2013-07-27 16:33:00,101.5,56.4,29.78,NW,313,3.6,5.1,23,0.00,,,0.00,WUHU216HW,2013-07-27 23:33:00,
2013-07-27 16:38:00,101.5,56.4,29.78,WNW,303,4.8,6.0,23,0.00,,,0.00,WUHU216HW,2013-07-27 23:38:00,
2013-07-27 16:43:00,101.5,56.4,29.78,NW,304,6.6,7.6,23,0.00,,,0.00,WUHU216HW,2013-07-27 23:43:00,
2013-07-27 16:48:00,101.5,56.4,29.78,NW,315,6.3,7.6,23,0.00,,,0.00,WUHU216HW,2013-07-27 23:48:00,
2013-07-27 17:04:00,101.3,57.4,29.76,NW,311,3.6,5.8,24,0.00,,,0.00,WUHU216HW,2013-07-28 00:04:00,
2013-07-27 17:09:00,101.2,57.3,29.76,NW,314,2.2,4.7,24,0.00,,,0.00,WUHU216HW,2013-07-28 00:09:00,
2013-07-27 17:14:00,101.0,57.2,29.76,NW,310,5.6,8.5,24,0.00,,,0.00,WUHU216HW,2013-07-28 00:14:00,
2013-07-27 17:19:00,101.0,57.2,29.76,NW,313,2.8,6.7,24,0.00,,,0.00,WUHU216HW,2013-07-28 00:19:00,
2013-07-27 17:24:00,100.8,57.1,29.76,NW,304,4.2,6.9,24,0.00,,,0.00,WUHU216HW,2013-07-28 00:24:00,
2013-07-27 17:29:00,100.4,56.7,29.76,NW,322,2.4,6.3,24,0.00,,,0.00,WUHU216HW,2013-07-28 00:29:00,
2013-07-27 17:34:00,100.3,56.6,29.75,NNW,340,1.8,4.7,24,0.00,,,0.00,WUHU216HW,2013-07-28 00:34:00,
2013-07-27 17:39:00,100.3,56.6,29.75,NW,312,3.1,6.0,24,0.00,,,0.00,WUHU216HW,2013-07-28 00:39:00,
2013-07-27 17:44:00,100.4,56.7,29.75,NW,306,5.1,6.9,24,0.00,,,0.00,WUHU216HW,2013-07-28 00:44:00,
2013-07-27 17:49:00,100.4,56.7,29.75,NW,304,4.3,7.2,24,0.00,,,0.00,WUHU216HW,2013-07-28 00:49:00,
2013-07-27 17:54:00,100.1,56.4,29.75,NW,307,4.6,6.3,24,0.00,,,0.00,WUHU216HW,2013-07-28 00:54:00,
2013-07-27 17:59:00,99.9,56.3,29.75,WNW,290,5.1,7.8,24,0.00,,,0.00,WUHU216HW,2013-07-28 00:59:00,
2013-07-27 18:04:00,100.1,57.6,29.75,NW,316,3.0,5.1,25,0.00,,,0.00,WUHU216HW,2013-07-28 01:04:00,
2013-07-27 18:09:00,99.9,57.4,29.75,WNW,299,4.4,5.4,25,0.00,,,0.00,WUHU216HW,2013-07-28 01:09:00,
2013-07-27 18:14:00,99.7,57.2,29.75,NW,304,3.7,5.4,25,0.00,,,0.00,WUHU216HW,2013-07-28 01:14:00,
2013-07-27 18:19:00,99.7,57.2,29.75,NW,306,4.1,5.4,25,0.00,,,0.00,WUHU216HW,2013-07-28 01:19:00,
2013-07-27 18:24:00,99.5,57.2,29.75,WNW,297,3.4,4.7,25,0.00,,,0.00,WUHU216HW,2013-07-28 01:24:00,
2013-07-27 18:29:00,99.4,58.1,29.75,NW,313,2.9,4.3,26,0.00,,,0.00,WUHU216HW,2013-07-28 01:29:00,
2013-07-27 18:34:00,99.2,58.0,29.74,NW,317,2.9,4.0,26,0.00,,,0.00,WUHU216HW,2013-07-28 01:34:00,
2013-07-27 18:39:00,99.0,56.6,29.74,NW,317,2.9,4.9,25,0.00,,,0.00,WUHU216HW,2013-07-28 01:39:00,
2013-07-27 18:44:00,99.0,56.6,29.74,NW,314,3.3,5.1,25,0.00,,,0.00,WUHU216HW,2013-07-28 01:44:00,
2013-07-27 18:49:00,98.8,57.6,29.74,NW,319,3.8,6.9,26,0.00,,,0.00,WUHU216HW,2013-07-28 01:49:00,
2013-07-27 18:54:00,98.6,57.4,29.74,NW,322,2.5,3.8,26,0.00,,,0.00,WUHU216HW,2013-07-28 01:54:00,
2013-07-27 18:59:00,98.5,57.3,29.74,NW,323,2.2,4.9,26,0.00,,,0.00,WUHU216HW,2013-07-28 01:59:00,
2013-07-27 19:04:00,98.1,57.0,29.74,NW,320,2.1,3.6,26,0.00,,,0.00,WUHU216HW,2013-07-28 02:04:00,
2013-07-27 19:09:00,97.9,58.0,29.74,NW,315,2.1,4.5,27,0.00,,,0.00,WUHU216HW,2013-07-28 02:09:00,
2013-07-27 19:14:00,97.6,57.6,29.74,NW,305,1.4,1.8,27,0.00,,,0.00,WUHU216HW,2013-07-28 02:14:00,
2013-07-27 19:19:00,97.4,57.5,29.74,NW,320,0.8,1.6,27,0.00,,,0.00,WUHU216HW,2013-07-28 02:19:00,
2013-07-27 19:24:00,97.2,59.5,29.74,NW,316,0.6,1.6,29,0.00,,,0.00,WUHU216HW,2013-07-28 02:24:00,
2013-07-27 19:29:00,97.0,60.5,29.74,NW,313,0.7,1.3,30,0.00,,,0.00,WUHU216HW,2013-07-28 02:29:00,
2013-07-27 19:34:00,96.7,61.0,29.74,NNW,338,0.4,0.4,31,0.00,,,0.00,WUHU216HW,2013-07-28 02:34:00,
2013-07-27 19:39:00,96.1,60.6,29.74,North,359,0.8,1.3,31,0.00,,,0.00,WUHU216HW,2013-07-28 02:39:00,
2013-07-27 19:44:00,95.4,60.8,29.74,North,0,0.0,0.0,32,0.00,,,0.00,WUHU216HW,2013-07-28 02:44:00,
2013-07-27 19:49:00,95.0,61.3,29.74,North,0,0.4,0.7,33,0.00,,,0.00,WUHU216HW,2013-07-28 02:49:00,
2013-07-27 19:54:00,94.5,60.0,29.74,North,0,0.0,0.0,32,0.00,,,0.00,WUHU216HW,2013-07-28 02:54:00,
2013-07-27 19:59:00,94.0,60.3,29.74,North,0,0.0,0.0,33,0.00,,,0.00,WUHU216HW,2013-07-28 02:59:00,
2013-07-27 20:04:00,93.6,60.0,29.74,North,0,0.0,0.0,33,0.00,,,0.00,WUHU216HW,2013-07-28 03:04:00,
2013-07-27 20:09:00,93.1,60.3,29.74,North,0,0.0,0.0,34,0.00,,,0.00,WUHU216HW,2013-07-28 03:09:00,
2013-07-27 20:14:00,92.5,60.7,29.74,North,0,0.0,0.0,35,0.00,,,0.00,WUHU216HW,2013-07-28 03:14:00,
2013-07-27 20:19:00,91.6,60.8,29.74,North,0,0.4,0.4,36,0.00,,,0.00,WUHU216HW,2013-07-28 03:19:00,
2013-07-27 20:25:00,91.1,61.8,29.74,North,0,0.0,0.0,38,0.00,,,0.00,WUHU216HW,2013-07-28 03:25:00,
2013-07-27 20:30:00,90.4,61.9,29.75,North,11,0.6,1.6,39,0.00,,,0.00,WUHU216HW,2013-07-28 03:30:00,
2013-07-27 20:35:00,89.6,61.3,29.75,North,0,0.2,0.4,39,0.00,,,0.00,WUHU216HW,2013-07-28 03:35:00,
2013-07-27 20:40:00,89.1,61.7,29.74,North,9,0.4,0.7,40,0.00,,,0.00,WUHU216HW,2013-07-28 03:40:00,
2013-07-27 20:45:00,88.7,62.0,29.74,North,4,0.4,0.9,41,0.00,,,0.00,WUHU216HW,2013-07-28 03:45:00,
2013-07-27 20:50:00,88.2,61.6,29.74,NE,44,0.6,0.9,41,0.00,,,0.00,WUHU216HW,2013-07-28 03:50:00,
2013-07-27 20:55:00,87.8,61.3,29.75,North,7,0.4,0.9,41,0.00,,,0.00,WUHU216HW,2013-07-28 03:55:00,
2013-07-27 21:00:00,87.5,61.6,29.75,North,0,0.3,0.7,42,0.00,,,0.00,WUHU216HW,2013-07-28 04:00:00,
2013-07-27 21:05:00,87.1,61.3,29.75,North,0,0.2,0.2,42,0.00,,,0.00,WUHU216HW,2013-07-28 04:05:00,
2013-07-27 21:10:00,86.8,60.9,29.75,North,0,0.0,0.0,42,0.00,,,0.00,WUHU216HW,2013-07-28 04:10:00,
2013-07-27 21:15:00,86.4,60.7,29.75,North,0,0.0,0.0,42,0.00,,,0.00,WUHU216HW,2013-07-28 04:15:00,
2013-07-27 21:20:00,86.2,61.1,29.75,NNW,338,0.2,0.2,43,0.00,,,0.00,WUHU216HW,2013-07-28 04:20:00,
2013-07-27 21:25:00,85.9,60.1,29.75,NNW,338,0.3,0.4,42,0.00,,,0.00,WUHU216HW,2013-07-28 04:25:00,
2013-07-27 21:30:00,85.5,59.2,29.76,NNW,338,0.2,0.2,41,0.00,,,0.00,WUHU216HW,2013-07-28 04:30:00,
2013-07-27 21:35:00,85.3,59.1,29.76,NNW,345,0.5,0.9,41,0.00,,,0.00,WUHU216HW,2013-07-28 04:35:00,
2013-07-27 21:40:00,85.3,58.4,29.76,NNW,332,0.4,0.7,40,0.00,,,0.00,WUHU216HW,2013-07-28 04:40:00,
2013-07-27 21:45:00,85.5,57.8,29.77,NNW,329,0.6,1.1,39,0.00,,,0.00,WUHU216HW,2013-07-28 04:45:00,
2013-07-27 21:50:00,85.7,58.0,29.77,NNW,347,0.6,1.1,39,0.00,,,0.00,WUHU216HW,2013-07-28 04:50:00,
2013-07-27 21:55:00,85.7,57.2,29.77,NNW,343,0.4,0.9,38,0.00,,,0.00,WUHU216HW,2013-07-28 04:55:00,
2013-07-27 22:00:00,85.5,57.0,29.77,NNW,327,0.4,1.1,38,0.00,,,0.00,WUHU216HW,2013-07-28 05:00:00,
2013-07-27 22:05:00,85.5,57.0,29.77,NW,322,0.5,1.1,38,0.00,,,0.00,WUHU216HW,2013-07-28 05:05:00,
2013-07-27 22:10:00,85.5,57.0,29.77,NW,325,0.8,1.3,38,0.00,,,0.00,WUHU216HW,2013-07-28 05:10:00,
2013-07-27 22:15:00,85.9,56.5,29.77,NW,317,2.1,3.4,37,0.00,,,0.00,WUHU216HW,2013-07-28 05:15:00,
2013-07-27 22:20:00,86.4,55.4,29.77,NW,322,1.5,3.4,35,0.00,,,0.00,WUHU216HW,2013-07-28 05:20:00,
2013-07-27 22:25:00,86.6,55.5,29.77,NW,316,2.3,3.6,35,0.00,,,0.00,WUHU216HW,2013-07-28 05:25:00,
2013-07-27 22:30:00,86.6,55.5,29.77,NW,317,2.8,3.8,35,0.00,,,0.00,WUHU216HW,2013-07-28 05:30:00,
2013-07-27 22:35:00,86.4,55.4,29.76,NW,304,2.7,3.4,35,0.00,,,0.00,WUHU216HW,2013-07-28 05:35:00,
2013-07-27 22:40:00,86.0,56.7,29.76,NW,313,1.5,2.9,37,0.00,,,0.00,WUHU216HW,2013-07-28 05:40:00,
2013-07-27 22:45:00,85.5,56.2,29.76,NW,315,1.1,1.3,37,0.00,,,0.00,WUHU216HW,2013-07-28 05:45:00,
2013-07-27 22:50:00,85.3,56.0,29.76,NW,315,1.2,1.6,37,0.00,,,0.00,WUHU216HW,2013-07-28 05:50:00,
2013-07-27 22:55:00,84.8,56.4,29.76,NW,307,1.7,2.2,38,0.00,,,0.00,WUHU216HW,2013-07-28 05:55:00,
2013-07-27 23:00:00,84.4,56.8,29.76,NW,311,1.2,2.5,39,0.00,,,0.00,WUHU216HW,2013-07-28 06:00:00,
2013-07-27 23:05:00,84.1,57.2,29.76,North,0,0.0,0.0,40,0.00,,,0.00,WUHU216HW,2013-07-28 06:05:00,
2013-07-27 23:10:00,83.5,57.4,29.77,North,0,0.0,0.0,41,0.00,,,0.00,WUHU216HW,2013-07-28 06:10:00,
2013-07-27 23:15:00,83.2,57.7,29.77,North,0,0.0,0.0,42,0.00,,,0.00,WUHU216HW,2013-07-28 06:15:00,
2013-07-27 23:20:00,82.6,57.2,29.77,NE,40,0.7,1.1,42,0.00,,,0.00,WUHU216HW,2013-07-28 06:20:00,
2013-07-27 23:25:00,81.9,57.8,29.76,North,0,0.0,0.0,44,0.00,,,0.00,WUHU216HW,2013-07-28 06:25:00,
2013-07-27 23:30:00,81.4,57.9,29.77,North,0,0.0,0.0,45,0.00,,,0.00,WUHU216HW,2013-07-28 06:30:00,
2013-07-27 23:35:00,81.0,58.1,29.77,SSW,213,0.4,0.7,46,0.00,,,0.00,WUHU216HW,2013-07-28 06:35:00,
2013-07-27 23:40:00,80.8,58.1,29.77,SSW,207,0.4,0.7,46,0.00,,,0.00,WUHU216HW,2013-07-28 06:40:00,
2013-07-27 23:45:00,80.6,57.9,29.77,SSW,200,0.8,1.3,46,0.00,,,0.00,WUHU216HW,2013-07-28 06:45:00,
2013-07-27 23:50:00,80.3,57.5,29.77,SSW,201,0.7,1.1,46,0.00,,,0.00,WUHU216HW,2013-07-28 06:50:00,
2013-07-27 23:55:00,80.1,58.0,29.77,ESE,113,0.3,0.4,47,0.00,,,0.00,WUHU216HW,2013-07-28 06:55:00,